Find Kosmos-2194

NORAD ID: 21983 Int'l Des: 1992-030 Owner: VVSR Country: RU operational
LEOCIRCULAR

实时位置

正在加载3D地球...

关于 Kosmos-2194

正在加载描述...

即将过境

Passes for default location (London). Set your location on the main map for personalized predictions.

高度历史

Loading altitude history...

两行轨道根数

1 21983U 92030H 26135.12584757 -.00000004 00000-0 80003-4 0 9993
2 21983 74.0056 18.2796 0016973 322.8900 189.9600 12.48475279547187
Epoch: May 15, 2026 • Age: 20 hours

当前状态

高度 1478.5 km
速度 7.13 km/s
星下点 -53.43°S, 135.04°E
发射日期 Jun 3, 1992
运行时间 33.9 years
类型 other

技术详情

分类 Payload
质量 60.00 kg
干质量 60.00 kg
总质量 60.00 kg
长度 0.80 m
直径 0.80 m
跨度 0.80 m
形状 Poly
制造商 NPOPM
平台类型 Strela-1 11F625
阶段状态 In Orbit
所有者/国家 VVSR/RU

Most Searched